TimeMDT,TemperatureF,Dew PointF,Humidity,Sea Level PressureIn,VisibilityMPH,Wind Direction,Wind SpeedMPH,Gust SpeedMPH,PrecipitationIn,Events,Conditions,WindDirDegrees,DateUTC
12:53 AM,64.0,39.9,41,29.84,10.0,WSW,11.5,-,N/A,,Clear,250,2013-08-02 06:53:00
1:53 AM,64.9,39.0,39,29.84,10.0,WSW,13.8,27.6,N/A,,Clear,250,2013-08-02 07:53:00
2:53 AM,63.0,39.9,43,29.84,10.0,West,19.6,26.5,N/A,,Clear,270,2013-08-02 08:53:00
3:53 AM,62.1,39.0,43,29.87,10.0,West,15.0,24.2,N/A,,Clear,270,2013-08-02 09:53:00
4:53 AM,60.1,39.9,47,29.89,10.0,West,12.7,19.6,N/A,,Clear,270,2013-08-02 10:53:00
5:53 AM,57.9,39.9,51,29.92,10.0,WSW,9.2,-,N/A,,Clear,240,2013-08-02 11:53:00
6:53 AM,54.0,41.0,62,29.96,10.0,WSW,5.8,-,N/A,,Clear,240,2013-08-02 12:53:00
7:53 AM,60.1,41.0,49,29.96,10.0,West,8.1,-,N/A,,Clear,260,2013-08-02 13:53:00
8:53 AM,63.0,43.0,48,29.98,10.0,West,9.2,-,N/A,,Clear,270,2013-08-02 14:53:00
9:53 AM,66.0,44.1,45,30.00,10.0,West,9.2,17.3,N/A,,Clear,280,2013-08-02 15:53:00
10:53 AM,68.0,44.1,42,30.00,10.0,WSW,9.2,-,N/A,,Clear,240,2013-08-02 16:53:00
11:53 AM,71.1,43.0,36,29.98,10.0,West,8.1,-,N/A,,Clear,270,2013-08-02 17:53:00
12:53 PM,73.9,37.9,27,29.97,10.0,WNW,9.2,-,N/A,,Clear,290,2013-08-02 18:53:00
1:53 PM,75.9,39.0,26,29.94,10.0,West,8.1,-,N/A,,Clear,280,2013-08-02 19:53:00
2:53 PM,78.1,39.0,25,29.92,10.0,Variable,6.9,-,N/A,,Clear,0,2013-08-02 20:53:00
3:53 PM,78.1,36.0,22,29.91,10.0,Variable,5.8,-,N/A,,Clear,0,2013-08-02 21:53:00
4:53 PM,79.0,34.0,20,29.89,10.0,West,6.9,-,N/A,,Clear,270,2013-08-02 22:53:00
5:53 PM,79.0,32.0,18,29.87,10.0,NW,8.1,-,N/A,,Clear,310,2013-08-02 23:53:00
6:53 PM,78.1,33.1,19,29.88,10.0,Variable,5.8,-,N/A,,Clear,0,2013-08-03 00:53:00
7:53 PM,73.0,42.1,33,29.88,10.0,West,5.8,-,N/A,,Clear,260,2013-08-03 01:53:00
8:53 PM,68.0,39.9,36,29.90,10.0,WSW,6.9,-,N/A,,Clear,250,2013-08-03 02:53:00
9:53 PM,61.0,44.1,54,29.92,10.0,SSW,4.6,-,N/A,,Clear,210,2013-08-03 03:53:00
10:53 PM,57.9,45.0,62,29.93,10.0,South,3.5,-,N/A,,Clear,180,2013-08-03 04:53:00
11:53 PM,55.9,44.1,64,29.93,10.0,SW,6.9,-,N/A,,Clear,220,2013-08-03 05:53:00